Salinas, CA

7:55 PM PST on December 15, 2017 (GMT -0800)
Salinas Municipal

Weather History for KSNS - April, 2014

Change the Weather History Date:

Thursday, April 24, 2014

  Actual Average Record
Temperature  
Mean Temperature 58 °F 58 °F  
Max Temperature 69 °F 68 °F 84 °F (1992)
Min Temperature 47 °F 47 °F 34 °F (1937)
Degree Days  
Heating Degree Days 7 8  
Month to date heating degree days 150 210  
Since 1 July heating degree days 1780 2344  
Cooling Degree Days 0 0  
Month to date cooling degree days 3 0  
Year to date cooling degree days 6 1  
Growing Degree Days 8 (Base 50)    
Moisture  
Dew Point 48 °F    
Average Humidity 63    
Maximum Humidity 83    
Minimum Humidity 42    
Precipitation  
Precipitation 0.00 in 0.02 in 0.22 in (1989)
Month to date precipitation 0.37 0.81  
Year to date precipitation 4.72 8.16  
Since 1 July precipitation 5.66  
Sea Level Pressure  
Sea Level Pressure 30.09 in    
Wind  
Wind Speed 8 mph (West)    
Max Wind Speed 20 mph    
Max Gust Speed 25 mph    
Visibility 10 miles    
Events      
T = Trace of Precipitation, MM = Missing Value Source: NWS Daily Summary

Daily Weather History Graph

Daily Weather History Graph

Search for Another Location

Airport or City:

Trip Planner

Search our weather history database for the weather conditions in past years. The results will help you decide how hot, cold, wet, or windy it might be!

Date:

Astronomy

Apr. 24, 2014 Rise Set
Actual Time 6:20 AM PDT 7:48 PM PDT
Civil Twilight 5:53 AM PDT 8:16 PM PDT
Nautical Twilight 5:20 AM PDT 8:48 PM PDT
Astronomical Twilight 4:46 AM PDT 9:23 PM PDT
Moon 3:27 AM PDT (4/24) 3:17 PM PDT (4/24)
Length of Visible Light 14h 22m
Length of Day
13h 28m
Waning Crescent, 23% of the Moon is Illuminated
Apr 24
Waning Crescent
Apr 28
New
May 6
First Quarter
May 14
Full
May 21
Last Quarter

Hourly Weather History & Observations

Time (PDT) Temp. Dew Point Humidity Pressure Visibility Wind Dir Wind Speed Gust Speed Precip Events Conditions
12:53 AM 52.0 °F 44.1 °F 74% 30.13 in 10.0 mi North 4.6 mph - N/A   Clear
1:53 AM 51.1 °F 44.1 °F 77% 30.12 in 10.0 mi North 3.5 mph - N/A   Clear
2:53 AM 50.0 °F 44.1 °F 80% 30.12 in 10.0 mi NW 3.5 mph - N/A   Clear
3:53 AM 50.0 °F 44.1 °F 80% 30.11 in 10.0 mi Calm Calm - N/A   Clear
4:53 AM 48.9 °F 43.0 °F 80% 30.12 in 10.0 mi Calm Calm - N/A   Clear
5:53 AM 48.0 °F 42.1 °F 80% 30.11 in 10.0 mi Calm Calm - N/A   Clear
6:53 AM 48.9 °F 42.1 °F 77% 30.12 in 10.0 mi West 3.5 mph - N/A   Clear
7:15 AM 50.0 °F 42.8 °F 76% 30.11 in 10.0 mi NW 3.5 mph - N/A   Scattered Clouds
7:30 AM 51.8 °F 44.6 °F 76% 30.12 in 9.0 mi West 5.8 mph - N/A   Mostly Cloudy
7:53 AM 52.0 °F 46.9 °F 83% 30.15 in 6.0 mi Variable 3.5 mph - N/A   Haze
8:53 AM 54.0 °F 48.9 °F 83% 30.16 in 10.0 mi WNW 5.8 mph - N/A   Overcast
9:05 AM 55.4 °F 48.2 °F 77% 30.13 in 10.0 mi West 5.8 mph - N/A   Overcast
9:32 AM 57.2 °F 48.2 °F 72% 30.12 in 10.0 mi West 5.8 mph - N/A   Scattered Clouds
9:53 AM 59.0 °F 48.9 °F 69% 30.15 in 10.0 mi West 6.9 mph - N/A   Clear
10:53 AM 63.0 °F 48.0 °F 58% 30.14 in 10.0 mi West 3.5 mph - N/A   Clear
11:53 AM 68.0 °F 45.0 °F 43% 30.12 in 10.0 mi Variable 3.5 mph - N/A   Clear
12:53 PM 66.9 °F 46.9 °F 49% 30.09 in 10.0 mi WSW 10.4 mph 19.6 mph N/A   Clear
1:53 PM 66.0 °F 48.0 °F 52% 30.08 in 10.0 mi West 15.0 mph - N/A   Clear
2:53 PM 66.9 °F 48.0 °F 51% 30.08 in 10.0 mi WSW 17.3 mph - N/A   Clear
3:53 PM 64.0 °F 48.9 °F 58% 30.09 in 10.0 mi West 16.1 mph 24.2 mph N/A   Clear
4:53 PM 63.0 °F 48.9 °F 60% 30.07 in 10.0 mi WSW 13.8 mph - N/A   Clear
5:53 PM 61.0 °F 50.0 °F 67% 30.06 in 10.0 mi WSW 13.8 mph - N/A   Partly Cloudy
6:53 PM 59.0 °F 50.0 °F 72% 30.06 in 10.0 mi WSW 12.7 mph - N/A   Partly Cloudy
7:16 PM 59.0 °F 50.0 °F 72% 30.03 in 10.0 mi WSW 13.8 mph - N/A   Mostly Cloudy
7:39 PM 59.0 °F 50.0 °F 72% 30.03 in 10.0 mi WSW 8.1 mph - N/A   Partly Cloudy
7:53 PM 59.0 °F 50.0 °F 72% 30.06 in 10.0 mi WSW 11.5 mph - N/A   Partly Cloudy
8:24 PM 57.2 °F 50.0 °F 77% 30.02 in 10.0 mi WSW 12.7 mph - N/A   Mostly Cloudy
8:53 PM 57.9 °F 51.1 °F 78% 30.04 in 10.0 mi WSW 8.1 mph - N/A   Overcast
9:53 PM 57.9 °F 50.0 °F 75% 30.04 in 10.0 mi SW 8.1 mph - N/A   Overcast
10:19 PM 57.2 °F 51.8 °F 82% 30.00 in 10.0 mi SW 6.9 mph - N/A   Scattered Clouds
10:26 PM 57.2 °F 51.8 °F 82% 30.00 in 10.0 mi WSW 4.6 mph - N/A   Mostly Cloudy
10:53 PM 57.9 °F 51.1 °F 78% 30.04 in 10.0 mi WSW 10.4 mph - N/A   Mostly Cloudy
11:53 PM 57.0 °F 51.1 °F 81% 30.03 in 10.0 mi West 8.1 mph - N/A   Mostly Cloudy